Location: Boltonville
(43.5274°N, 88.1004°W)
Time: 09:29:31
(UTC+00:00)

ARIANE 6 FM1 Upper Stage - Visible Passes

Search period start: 11 June 2026 00:00
Search period end: 21 June 2026 00:00
Orbit: 528 x 599 km, 62.0° (Epoch: 10 June)

Date Brightness Start Highest point End Pass type
(mag) Time Alt. Az. Time Alt. Az. Time Alt. Az.
11 Jun 4.8 06:06:52 15° E 06:06:52 15° E 06:08:24 10° ENE visible
11 Jun 3.0 07:42:48 35° WSW 07:44:16 56° NW 07:48:19 10° NNE visible
11 Jun 5.2 09:22:26 10° NW 09:24:05 12° NNW 09:25:43 10° N visible
12 Jun 4.4 06:05:58 22° E 06:05:58 22° E 06:08:15 10° ENE visible
12 Jun 3.6 07:41:54 26° W 07:43:39 40° NW 07:47:33 10° NNE visible
13 Jun 3.9 06:05:01 31° E 06:05:01 31° E 06:07:53 10° NE visible
13 Jun 4.2 07:40:57 19° W 07:43:06 30° NW 07:46:44 10° NNE visible
14 Jun 3.2 06:04:00 46° E 06:04:00 46° E 06:07:22 10° NE visible
14 Jun 4.6 07:39:55 13° W 07:42:33 23° NW 07:45:51 10° NNE visible
15 Jun 2.7 06:02:55 72° E 06:02:55 72° E 06:06:46 10° NE visible
15 Jun 5.0 07:39:09 10° W 07:42:03 18° NW 07:44:55 10° N visible
16 Jun 2.6 06:01:45 73° W 06:01:57 75° NW 06:06:05 10° NE visible
16 Jun 5.3 07:39:15 10° WNW 07:41:35 14° NNW 07:43:52 10° N visible
17 Jun 4.8 04:24:35 14° E 04:24:35 14° E 04:25:32 10° ENE visible
17 Jun 3.2 06:00:29 44° W 06:01:17 52° NW 06:05:20 10° NNE visible
17 Jun 5.5 07:39:38 10° NW 07:41:08 12° NNW 07:42:38 10° N visible
18 Jun 4.2 04:23:12 22° E 04:23:12 22° E 04:25:19 10° ENE visible
18 Jun 3.9 05:59:06 27° W 06:00:40 38° NW 06:04:32 10° NNE visible
19 Jun 3.4 04:21:41 35° E 04:21:41 35° E 04:24:53 10° NE visible
19 Jun 4.5 05:57:34 16° W 06:00:04 28° NW 06:03:41 10° NNE visible
20 Jun 2.7 04:19:57 53° SE 04:20:16 55° SE 04:24:20 10° NE visible
20 Jun 4.9 05:56:13 10° W 05:59:31 22° NW 06:02:46 10° NNE visible
